Other Public Products
Issued by NWS Grand Forks, ND

Home | Current Version | Previous Version | Graphics & Text | Print | Product List | Glossary On
Versions: 1 2 3 4 5 6 7 8 9 10 11 12 13 14 15 16 17 18 19 20 21 22 23 24 25 26 27 28 29 30 31 32 33 34 35 36 37 38 39 40 41 42 43 44 45 46 47 48 49 50
000
FPUS83 KFGF 260631
OPUFGF
PRAIRIE TO PINES WEATHER ROUNDUP
NATIONAL WEATHER SERVICE EASTERN NORTH DAKOTA/GRAND FORKS ND
1200 AM CST WED NOV 26 2014

 **SATELLITE DATA USED TO AUGMENT SKY COVER AT AUTOMATED STATIONS**
 *****  WEATHER ACROSS EASTERN NORTH DAKOTA  *****

CITY           SKY/WX    TMP DP  RH WIND       PRES   REMARKS
GRAND FORKS    LGT SNOW  11   6  81 N16       30.16R WCI  -6
6HR MIN TEMP:  11; 6HR MAX TEMP:  21; 6HR PCP:  0.02;

GRAND FORKS AF FLURRIES   9   5  85 N12       30.17R WCI  -6
GRAND CITY NWS   N/A     10 N/A N/A N9          N/A  WCI  -2
BUXTON           N/A     12  11  96 N14         N/A  WCI  -3
DEVILS LAKE    PTCLDY     7  -6  56 N13       30.15R WCI  -9
6HR MIN TEMP:   7; 6HR MAX TEMP:  18;

FARGO          CLOUDY    19  15  84 N20       30.07R FOG     WCI   3
6HR MIN TEMP:  20; 6HR MAX TEMP:  26; 6HR PCP:  0.04;

WAHPETON ARPT  CLOUDY    23  18  80 NE13      30.01R WCI  11
$$

 *****  WEATHER ACROSS CENTRAL AND WESTERN NORTH DAKOTA  *****

CITY           SKY/WX    TMP DP  RH WIND       PRES   REMARKS
JAMESTOWN      LGT SNOW  13   9  84 N18       30.05R FOG     WCI  -4
6HR MIN TEMP:  13; 6HR MAX TEMP:  27; 6HR PCP:  0.08;

BISMARCK       CLOUDY    17  12  80 N10       30.13R WCI   5
6HR MIN TEMP:  17; 6HR MAX TEMP:  33; 6HR PCP: TRACE;

MINOT          MOCLDY     4   0  83 NW8       30.19R WCI  -9
6HR MIN TEMP:   1; 6HR MAX TEMP:  19; 6HR PCP: TRACE;

MINOT AFB      FLURRIES   5   1  85 NW5       30.21R WCI  -4
                                      6HR PCP: TRACE;

GARRISON         N/A     12   8  84 N9G17     30.15R WCI   0
6HR MIN TEMP:  12; 6HR MAX TEMP:  25; 6HR PCP:  0.02;

WILLISTON      CLOUDY    16  10  77 NE7       30.21R WCI   6
6HR MIN TEMP:  16; 6HR MAX TEMP:  24;

DICKINSON      CLOUDY    20  16  84 N9        30.10R WCI   9
6HR MIN TEMP:  20; 6HR MAX TEMP:  33; 6HR PCP: TRACE;

HETTINGER      CLOUDY    21  17  84 N17G26    30.10R WCI   7
6HR MIN TEMP:  21; 6HR MAX TEMP:  34; 6HR PCP: TRACE;

$$

 *****  OTHER OBSERVATIONS NORTHEAST NORTH DAKOTA  *****

CITY           SKY/WX    TMP DP  RH WIND       PRES   REMARKS
WALHALLA         N/A      3   0  85 N16       30.24R WCI -16
LANGDON        CLOUDY     3   0  85 N14       30.16R WCI -15
CAVALIER       CLOUDY     5   0  78 N15G23    30.23R WCI -13
GRAFTON        FAIR       7   1  78 N14G23    30.21R WCI -10
CANDO          CLOUDY     5   1  85 N10       30.19R WCI -10
FORT TOTTEN    NOT AVBL
ROLLA          CLOUDY     3   0  85 N16       30.19R WCI -16
RUGBY          FAIR       1   0  92 N7        30.20R WCI -11
 ***** THE ABOVE OBSERVATIONS ARE NON NWS ARE NOT QUALITY
        CONTROLLED AND MAY MIS-REPORT RAIN FOR SNOW...
$$

 *****  OTHER OBSERVATIONS SOUTHEAST NORTH DAKOTA *****

CITY           SKY/WX    TMP DP  RH WIND       PRES   REMARKS
COOPERSTOWN    NOT AVBL
VALLEY CITY    LGT SNOW  12  12 100 N16G26    30.06R WCI  -4
OAKES          LGT SNOW  19  19 100 N26G35    29.98R WCI   1
GWINNER        CLOUDY    25  23  93 N25       30.00R WCI   9
BUFFALO        NOT AVBL
WYNDMERE         N/A     21  21 100 NE12        N/A  WCI   9
 ***** THE ABOVE OBSERVATIONS ARE NON NWS ARE NOT QUALITY
       CONTROLLED AND MAY MIS-REPORT RAIN FOR SNOW...
$$

  *****  WEATHER ACROSS NORTHERN MINNESOTA  *****

CITY           SKY/WX    TMP DP  RH WIND       PRES   REMARKS
FLAG ISLAND    CLOUDY    10   7  85 N10       30.13R WCI  -3
WARROAD        FLURRIES  10   7  85 N8        30.13R WCI  -1
ROSEAU         CLOUDY    10   7  85 N10       30.14R WCI  -3
HALLOCK        CLOUDY     7   1  78 N14G20    30.20R WCI -10
THF RVR FALLS  CLOUDY    14   9  79 N13       30.11R WCI   0
6HR MIN TEMP:  14; 6HR MAX TEMP:  21;

HALSTAD          N/A     16  12  85 N18         N/A  WCI   0
FOSSTON        LGT SNOW  18  16  93 N8        30.07R WCI   7
BAUDETTE       FLURRIES  14  10  84 N6        30.09R WCI   5
6HR MIN TEMP:  14; 6HR MAX TEMP:  17; 6HR PCP: TRACE;

WASKISH        LGT SNOW  16  12  86 CALM      30.08R
CROOKSTON      LGT SNOW  16  10  79 N14       30.14R WCI   1
$$
  *****  WEATHER ACROSS CENTRAL AND WEST MINNESOTA  *****

CITY           SKY/WX    TMP DP  RH WIND       PRES   REMARKS
BEMIDJI        FLURRIES  18  14  87 CALM      30.04R
PARK RAPIDS    CLOUDY    18  10  71 NE5       30.01R WCI  11
6HR MIN TEMP:  18; 6HR MAX TEMP:  20; 6HR PCP: TRACE;

WADENA         CLOUDY    18  10  73 NE7       30.00S WCI   8
DETROIT LAKES  LGT SNOW  19  18  93 NE6       30.02R WCI  11
MOORHEAD       LGT RAIN  21  21 100 N15       30.06R WCI   8
FERGUS FALLS   CLOUDY    21  10  63 NE12      30.03R WCI   9
ELBOW LAKE       N/A     22  14  74 E12       29.97R WCI  10
MORRIS MN      MOCLDY    25  18  74 E10       29.94R WCI  15
STAPLES        CLOUDY    18  10  73 NE5       30.01S WCI  11
WHEATON        CLOUDY    21  16  79 NE9       29.99R WCI  11
$$
  *****  WEATHER ELSEWHERE ACROSS MINNESOTA  *****

CITY           SKY/WX    TMP DP  RH WIND       PRES   REMARKS
DULUTH         CLOUDY    19  11  70 W3        30.04R
6HR MIN TEMP:  17; 6HR MAX TEMP:  19;

INTRNTL FALLS  LGT SNOW  15  11  83 N6        30.08R VSB 1   WCI   6
6HR MIN TEMP:   6; 6HR MAX TEMP:  16; 6HR PCP:  0.01;

ELY            CLOUDY     3   1  92 CALM      30.04S
CLOQUET        CLOUDY    18  12  79 CALM      30.04F
BRAINERD       CLOUDY    19  11  70 E6        30.03R WCI  11
6HR MIN TEMP:  15; 6HR MAX TEMP:  19;

HIBBING        CLOUDY    19   7  59 CALM      30.04R
6HR MIN TEMP:  19; 6HR MAX TEMP:  20;

ALEXANDRIA     CLOUDY    21  13  71 E9        29.96R WCI  11
6HR MIN TEMP:  20; 6HR MAX TEMP:  21;

SAINT CLOUD    CLOUDY    24  15  68 E8        30.01R WCI  15
6HR MIN TEMP:  21; 6HR MAX TEMP:  24;

MINNEAPOLIS    CLOUDY    24  16  71 SE9       30.03S WCI  14
6HR MIN TEMP:  23; 6HR MAX TEMP:  24;

$$

  *****  WEATHER ACROSS SOUTH DAKOTA  *****

CITY           SKY/WX    TMP DP  RH WIND       PRES   REMARKS
SIOUX FALLS    LGT SNOW  31  30  96 E6        29.81S FOG
6HR MIN TEMP:  31; 6HR MAX TEMP:  35; 6HR PCP:  0.04;

BROOKINGS      NOT AVBL
WATERTOWN      CLOUDY    28  26  92 E5        29.82R WCI  23
6HR MIN TEMP:  28; 6HR MAX TEMP:  30; 6HR PCP: TRACE;

HURON          CLOUDY    31  29  92 CALM      29.81R
6HR MIN TEMP:  31; 6HR MAX TEMP:  35; 6HR PCP:  0.02;

SISSETON         N/A     23  22  96 NE12      29.93R WCI  12
ABERDEEN       CLOUDY    31  28  89 NE15      29.87R WCI  20
6HR MIN TEMP:  30; 6HR MAX TEMP:  32; 6HR PCP:  0.09;

MITCHELL       CLOUDY    34  33  96 W7        29.83R
PIERRE         FLURRIES  34  29  82 NW30G39   29.87R WCI  20
6HR MIN TEMP:  33; 6HR MAX TEMP:  38; 6HR PCP: TRACE;

MOBRIDGE       CLOUDY    27  23  85 N25G40    29.93R WCI  12
RAPID CITY     CLOUDY    30  23  75 N32G43    30.04R WCI  14
6HR MIN TEMP:  31; 6HR MAX TEMP:  37;

$$

  *****  SOME WEATHER IN NEARBY STATES *****

CITY           SKY/WX    TMP DP  RH WIND       PRES   REMARKS
GLASGOW MT     CLOUDY    21  16  81 NE8       30.20R WCI  11
6HR MIN TEMP:  21; 6HR MAX TEMP:  26;

GREAT FALLS MT CLOUDY    30  25  81 S9        30.13S WCI  22
6HR MIN TEMP:  30; 6HR MAX TEMP:  31;

CHEYENNE WY    FLURRIES  24  18  77 N23G35    30.06R WCI   9
6HR MIN TEMP:  24; 6HR MAX TEMP:  40; 6HR PCP:  0.08;

SCOTTSBLUFF NE CLOUDY    32  26  78 NW14      30.07R WCI  22
6HR MIN TEMP:  31; 6HR MAX TEMP:  35; 6HR PCP:  0.01;

OMAHA NE       LGT RAIN  40  27  59 S17       29.87S
6HR MIN TEMP:  38; 6HR MAX TEMP:  40; 6HR PCP: TRACE;

DES MOINES IA  CLOUDY    33  15  47 SE12      29.97F WCI  24
6HR MIN TEMP:  29; 6HR MAX TEMP:  33;

DAVENPORT IA   CLEAR     16  12  84 SE9       30.13F WCI   4
6HR MIN TEMP:  14; 6HR MAX TEMP:  19;

CHICAGO IL     MOCLDY    20  16  84 S7        30.18F WCI  11
6HR MIN TEMP:  18; 6HR MAX TEMP:  21;

EAU CLAIRE WI  CLOUDY    22  15  75 SE3       30.09R
6HR MIN TEMP:  22; 6HR MAX TEMP:  23;

LA CROSSE WI   CLOUDY    19  14  81 SE5       30.12R WCI  12
6HR MIN TEMP:  17; 6HR MAX TEMP:  24;

$$

  *****  SOME NATIONAL WEATHER *****

CITY           SKY/WX    TMP DP  RH WIND       PRES   REMARKS
LA GUARDIA NY  CLOUDY    51  29  42 NW8       30.15F
6HR MIN TEMP:  51; 6HR MAX TEMP:  53;




USA.gov is the U.S. government's official web portal to all federal, state and local government web resources and services.